Torna al catalogo

STARLINK-5833

AttivoComunicazioniVLEO
NORAD 55773·PAYLOAD·🇺🇸 United States

Lanciato Mar 3, 2023 da Vandenberg Space Force Base

Loading…

Prossimi Passaggi (prossime 24 ore)

TLE

AggiornatoSource: CelesTrak SupGP

Epoca: Sep 15, 2026, 02:18 UTC

1 55773C 23028AJ  26258.09631944 -.00020271  00000+0 -16983-2 0  2581
2 55773  69.9997 106.9767 0003114 273.5120  40.0916 14.98351192    17

Traccia STARLINK-5833 in tempo reale con AllMySat

Download on the App Store